This is the latest recevied weather packets stored in our database for station/object KN4DS-3. If no packets are shown the sender has not sent any weather packets the latest 10 day(s).
| Time | Temp. | Humidity | Pressure | Rain* | Wind** | Luminosity | Snow |
|---|---|---|---|---|---|---|---|
| 1777824904 | 21.11° C | 34% | 1021 hPa | 0 mm | - | - | - |
| 1777824605 | 20.56° C | 36% | 1021.1 hPa | 0 mm | - | - | - |
| 1777824305 | 20.56° C | 40% | 1021.1 hPa | 0 mm | - | - | - |
| 1777824004 | 20° C | 38% | 1021.1 hPa | 0 mm | - | - | - |
| 1777823704 | 20° C | 36% | 1021.1 hPa | 0 mm | - | - | - |
| 1777823404 | 20° C | 38% | 1021.2 hPa | 0 mm | - | - | - |
| 1777823104 | 20° C | 38% | 1021.2 hPa | 0 mm | - | - | - |
| 1777822804 | 19.44° C | 38% | 1021.2 hPa | 0 mm | - | - | - |
| 1777822505 | 19.44° C | 37% | 1021.2 hPa | 0 mm | - | - | - |
| 1777822204 | 20° C | 35% | 1021.2 hPa | 0 mm | - | - | - |
| 1777821904 | 20° C | 35% | 1021.3 hPa | 0 mm | - | - | - |
| 1777821605 | 20° C | 38% | 1021.2 hPa | 0 mm | - | - | - |
| 1777821304 | 19.44° C | 40% | 1021.2 hPa | 0 mm | - | - | - |
| 1777821004 | 18.89° C | 39% | 1021.2 hPa | 0 mm | - | - | - |
| 1777820704 | 18.89° C | 39% | 1021.2 hPa | 0 mm | - | - | - |
| 1777820404 | 18.89° C | 39% | 1021.3 hPa | 0 mm | - | - | - |
| 1777820104 | 18.89° C | 42% | 1021.2 hPa | 0 mm | - | - | - |
| 1777819804 | 18.33° C | 45% | 1021.2 hPa | 0 mm | - | - | - |
| 1777819504 | 17.78° C | 47% | 1021.1 hPa | 0 mm | - | - | - |
| 1777819204 | 17.78° C | 48% | 1021.1 hPa | 0 mm | - | - | - |
| 1777818905 | 17.78° C | 49% | 1021.1 hPa | 0 mm | - | - | - |
| 1777818605 | 17.22° C | 53% | 1021 hPa | 0 mm | - | - | - |
| 1777818304 | 16.67° C | 54% | 1020.9 hPa | 0 mm | - | - | - |
| 1777818004 | 16.67° C | 53% | 1020.9 hPa | 0 mm | - | - | - |
| 1777817703 | 16.11° C | 56% | 1021 hPa | 0 mm | - | - | - |
* Rain latest hour (hover to see other rain measurements)
** Current wind speed in m/s (hover to see current wind gust speed)